TimeMST,TemperatureF,Dew PointF,Humidity,Sea Level PressureIn,VisibilityMPH,Wind Direction,Wind SpeedMPH,Gust SpeedMPH,PrecipitationIn,Events,Conditions,WindDirDegrees,DateUTC
12:02 AM,54.0,50.0,86,29.76,2.5,SSE,18.4,-,N/A,,Mostly Cloudy,150,2013-12-19 07:02:00
12:09 AM,55.0,51.1,86,29.76,4.0,SSE,16.1,-,N/A,,Scattered Clouds,150,2013-12-19 07:09:00
12:57 AM,55.9,50.0,80,29.76,10.0,SSE,8.1,-,N/A,,Clear,160,2013-12-19 07:57:00
1:57 AM,55.0,48.9,80,29.73,10.0,SSE,10.4,-,N/A,,Clear,150,2013-12-19 08:57:00
2:57 AM,51.1,45.0,80,29.73,10.0,ENE,3.5,-,N/A,,Clear,60,2013-12-19 09:57:00
3:57 AM,55.0,45.0,69,29.72,10.0,Variable,3.5,-,N/A,,Clear,0,2013-12-19 10:57:00
4:57 AM,51.1,45.0,80,29.72,10.0,North,4.6,-,N/A,,Clear,350,2013-12-19 11:57:00
5:57 AM,48.9,43.0,80,29.72,10.0,North,5.8,-,N/A,,Clear,350,2013-12-19 12:57:00
6:57 AM,48.9,43.0,80,29.74,10.0,North,5.8,-,N/A,,Partly Cloudy,10,2013-12-19 13:57:00
7:57 AM,50.0,44.1,80,29.73,10.0,NNE,3.5,-,N/A,,Scattered Clouds,30,2013-12-19 14:57:00
8:57 AM,55.9,43.0,62,29.73,10.0,East,3.5,-,N/A,,Partly Cloudy,100,2013-12-19 15:57:00
9:57 AM,61.0,39.9,46,29.74,10.0,WNW,5.8,-,N/A,,Partly Cloudy,290,2013-12-19 16:57:00
10:57 AM,63.0,39.9,43,29.75,10.0,NW,6.9,-,N/A,,Mostly Cloudy,320,2013-12-19 17:57:00
11:57 AM,64.9,39.0,39,29.75,10.0,Variable,6.9,-,N/A,,Mostly Cloudy,0,2013-12-19 18:57:00
12:57 PM,66.9,37.0,33,29.71,10.0,NNE,4.6,-,N/A,,Scattered Clouds,30,2013-12-19 19:57:00
1:57 PM,68.0,37.0,32,29.69,10.0,Variable,5.8,-,N/A,,Scattered Clouds,0,2013-12-19 20:57:00
2:57 PM,69.1,37.0,31,29.67,10.0,North,3.5,-,N/A,,Partly Cloudy,360,2013-12-19 21:57:00
3:57 PM,68.0,37.0,32,29.66,10.0,ENE,4.6,-,N/A,,Scattered Clouds,70,2013-12-19 22:57:00
4:57 PM,66.9,36.0,32,29.65,10.0,NNE,5.8,-,N/A,,Partly Cloudy,30,2013-12-19 23:57:00
5:57 PM,64.0,39.0,40,29.66,10.0,NNW,4.6,-,N/A,,Scattered Clouds,340,2013-12-20 00:57:00
6:57 PM,63.0,37.9,40,29.66,10.0,NNW,6.9,-,N/A,,Mostly Cloudy,330,2013-12-20 01:57:00
7:57 PM,62.1,37.0,39,29.67,10.0,NW,16.1,21.9,N/A,,Overcast,310,2013-12-20 02:57:00
8:57 PM,57.9,41.0,53,29.67,10.0,NW,13.8,-,N/A,,Mostly Cloudy,320,2013-12-20 03:57:00
9:57 PM,55.0,45.0,69,29.70,4.0,WNW,13.8,19.6,0.06,Rain,Light Rain,290,2013-12-20 04:57:00
10:57 PM,55.0,44.1,67,29.69,10.0,North,9.2,-,0.01,Rain,Light Rain,350,2013-12-20 05:57:00
11:57 PM,55.0,44.1,67,29.69,10.0,North,5.8,-,0.00,,Overcast,350,2013-12-20 06:57:00